Trinidad, CO

12:16 AM MDT on September 29, 2016 (GMT -0600)
Stokes

Weather History for KTAD - December, 2012

Change the Weather History Date:

Tuesday, December 4, 2012

  Actual Average Record
Temperature  
Mean Temperature 42 °F 33 °F  
Max Temperature 59 °F 47 °F 76 °F (1965)
Min Temperature 24 °F 19 °F 0 °F (2011)
Degree Days  
Heating Degree Days 23 32  
Month to date heating degree days 70 126  
Since 1 July heating degree days 1118 1359  
Cooling Degree Days 0 0  
Month to date cooling degree days 0 0  
Year to date cooling degree days 1175 719  
Moisture  
Dew Point 18 °F    
Average Humidity 42    
Maximum Humidity 60    
Minimum Humidity 23    
Precipitation  
Precipitation 0.00 in 0.02 in 0.22 in (1969)
Month to date precipitation 0.00  
Sea Level Pressure  
Sea Level Pressure 30.22 in    
Wind  
Wind Speed 7 mph (West)    
Max Wind Speed 17 mph    
Max Gust Speed 21 mph    
Visibility 10 miles    
Events      
T = Trace of Precipitation, MM = Missing Value Source: NWS Daily Summary

Daily Weather History Graph

Daily Weather History Graph

Search for Another Location

Airport or City:

Trip Planner

Search our weather history database for the weather conditions in past years. The results will help you decide how hot, cold, wet, or windy it might be!

Date:

Astronomy

Dec. 04, 2012 Rise Set
Actual Time 6:55 AM MST 4:39 PM MST
Civil Twilight 6:27 AM MST 5:08 PM MST
Nautical Twilight 5:54 AM MST 5:40 PM MST
Astronomical Twilight 5:23 AM MST 6:12 PM MST
Moon 10:24 PM MST (12/4) 10:55 AM MST (12/4)
Length of Visible Light 10h 41m
Length of Day
9h 43m
Waning Gibbous, 69% of the Moon is Illuminated
Dec 4
Waning Gibbous
Dec 6
Last Quarter
Dec 13
New
Dec 19
First Quarter
Dec 28
Full

Hourly Weather History & Observations

Time (MST) Temp. Windchill Dew Point Humidity Pressure Visibility Wind Dir Wind Speed Gust Speed Precip Events Conditions
12:54 AM 32.0 °F - 12.9 °F 45% 30.16 in 10.0 mi Calm Calm - N/A   Clear
1:54 AM 35.1 °F 31.0 °F 14.0 °F 42% 30.17 in 10.0 mi ENE 4.6 mph - N/A   Clear
2:54 AM 33.1 °F 28.7 °F 15.1 °F 48% 30.19 in 10.0 mi SW 4.6 mph - N/A   Clear
3:54 AM 30.0 °F - 14.0 °F 51% 30.22 in 10.0 mi Calm Calm - N/A   Clear
4:54 AM 25.0 °F 17.1 °F 12.9 °F 60% 30.27 in 10.0 mi West 6.9 mph - N/A   Clear
5:54 AM 26.1 °F 16.8 °F 14.0 °F 60% 30.32 in 10.0 mi WNW 9.2 mph - N/A   Clear
6:54 AM 28.0 °F 18.6 °F 16.0 °F 61% 30.33 in 10.0 mi WNW 10.4 mph - N/A   Clear
7:54 AM 32.0 °F 24.8 °F 17.1 °F 54% 30.33 in 10.0 mi WNW 8.1 mph - N/A   Clear
8:54 AM 41.0 °F 34.7 °F 19.9 °F 43% 30.32 in 10.0 mi WSW 10.4 mph - N/A   Clear
9:54 AM 48.0 °F - 21.0 °F 34% 30.31 in 10.0 mi West 9.2 mph - N/A   Clear
11:54 AM 53.1 °F - 19.9 °F 27% 30.25 in 10.0 mi SSE 3.5 mph - N/A   Clear
12:54 PM 55.9 °F - 19.0 °F 24% 30.22 in 10.0 mi SE 6.9 mph - N/A   Clear
1:54 PM 57.0 °F - 21.0 °F 25% 30.17 in 10.0 mi East 4.6 mph - N/A   Clear
2:54 PM 57.9 °F - 19.9 °F 23% 30.17 in 10.0 mi ENE 5.8 mph - N/A   Clear
3:54 PM 57.0 °F - 19.9 °F 24% 30.18 in 10.0 mi NE 6.9 mph - N/A   Clear
4:54 PM 52.0 °F - 19.0 °F 27% 30.20 in 10.0 mi NE 5.8 mph - N/A   Clear
5:54 PM 43.0 °F 37.2 °F 17.1 °F 35% 30.24 in 10.0 mi West 10.4 mph - N/A   Clear
6:54 PM 46.0 °F 39.9 °F 21.0 °F 37% 30.22 in 10.0 mi WSW 13.8 mph - N/A   Clear
7:54 PM 42.1 °F 38.4 °F 21.0 °F 43% 30.23 in 10.0 mi SW 5.8 mph - N/A   Clear
8:54 PM 45.0 °F 38.9 °F 23.0 °F 42% 30.18 in 10.0 mi WSW 12.7 mph - N/A   Clear
9:54 PM 44.1 °F 37.4 °F 23.0 °F 43% 30.15 in 10.0 mi SW 13.8 mph - N/A   Clear
10:54 PM 41.0 °F 35.8 °F 21.0 °F 45% 30.16 in 10.0 mi West 8.1 mph - N/A   Clear
11:54 PM 39.0 °F 32.3 °F 17.1 °F 41% 30.15 in 10.0 mi West 10.4 mph - N/A   Clear